TimeEST,TemperatureF,Dew PointF,Humidity,Sea Level PressureIn,VisibilityMPH,Wind Direction,Wind SpeedMPH,Gust SpeedMPH,PrecipitationIn,Events,Conditions,WindDirDegrees,DateUTC
12:53 AM,8.1,5.0,87,30.08,10.0,Calm,Calm,-,N/A,,Clear,0,2013-01-26 05:53:00
1:53 AM,6.1,3.0,87,30.08,9.0,Calm,Calm,-,N/A,,Clear,0,2013-01-26 06:53:00
2:53 AM,6.1,1.9,83,30.07,8.0,Calm,Calm,-,N/A,,Clear,0,2013-01-26 07:53:00
3:53 AM,6.1,1.9,83,30.07,10.0,Calm,Calm,-,N/A,,Clear,0,2013-01-26 08:53:00
4:53 AM,5.0,1.9,87,30.09,10.0,Calm,Calm,-,N/A,,Clear,0,2013-01-26 09:53:00
5:53 AM,5.0,1.9,87,30.11,10.0,Calm,Calm,-,N/A,,Mostly Cloudy,0,2013-01-26 10:53:00
6:53 AM,10.0,7.0,87,30.13,10.0,NW,5.8,-,N/A,,Overcast,310,2013-01-26 11:53:00
7:53 AM,15.1,10.9,84,30.15,10.0,Calm,Calm,-,N/A,,Overcast,0,2013-01-26 12:53:00
8:53 AM,18.0,10.9,74,30.16,10.0,Variable,4.6,-,N/A,,Overcast,0,2013-01-26 13:53:00
9:53 AM,19.0,9.0,65,30.18,10.0,WNW,8.1,-,N/A,,Overcast,300,2013-01-26 14:53:00
10:53 AM,21.0,7.0,55,30.19,10.0,NW,8.1,-,N/A,,Overcast,320,2013-01-26 15:53:00
11:53 AM,24.1,8.1,51,30.18,10.0,NW,13.8,20.7,N/A,,Overcast,320,2013-01-26 16:53:00
12:53 PM,26.1,8.1,47,30.15,10.0,NNW,12.7,18.4,N/A,,Clear,330,2013-01-26 17:53:00
1:53 PM,28.0,7.0,41,30.15,10.0,WNW,8.1,-,N/A,,Clear,300,2013-01-26 18:53:00
2:53 PM,28.0,5.0,38,30.17,10.0,NW,10.4,24.2,N/A,,Clear,320,2013-01-26 19:53:00
3:53 PM,28.0,6.1,39,30.19,10.0,NW,13.8,20.7,N/A,,Clear,320,2013-01-26 20:53:00
4:53 PM,26.1,5.0,41,30.21,10.0,NNW,13.8,19.6,N/A,,Clear,330,2013-01-26 21:53:00
5:53 PM,25.0,5.0,43,30.26,10.0,NNW,8.1,-,N/A,,Clear,330,2013-01-26 22:53:00
6:53 PM,24.1,5.0,44,30.28,10.0,NNW,10.4,-,N/A,,Clear,330,2013-01-26 23:53:00
7:53 PM,21.9,6.1,51,30.31,10.0,NNW,6.9,-,N/A,,Clear,330,2013-01-27 00:53:00
8:53 PM,21.0,5.0,50,30.33,10.0,NNW,3.5,-,N/A,,Clear,340,2013-01-27 01:53:00
9:53 PM,18.0,6.1,60,30.36,10.0,NNW,3.5,-,N/A,,Clear,330,2013-01-27 02:53:00
10:53 PM,14.0,6.1,71,30.38,10.0,NNW,4.6,-,N/A,,Clear,330,2013-01-27 03:53:00
11:53 PM,12.9,7.0,77,30.40,10.0,Calm,Calm,-,N/A,,Clear,0,2013-01-27 04:53:00